カタログに戻る

HELLAS-SAT 1

DFS 3

運用中通信GEO
NORAD 22175·PAYLOAD·🇬🇷 Greece

打ち上げ Oct 12, 1992 から Cape Canaveral Space Force Station

Loading…

TLE

最新Source: Space-Track

元期: Sep 14, 2026, 14:43 UTC

1 22175U 92066A   26257.61323147 -.00000134  00000-0  00000-0 0  9998
2 22175  14.2901   6.3798 0002169 206.7962 174.2329  0.99737569121444

AllMySatでHELLAS-SAT 1をリアルタイム追跡

Download on the App Store